Hourly Data Report for March 11, 2019

TORONTO CITY
ONTARIO
Current Station Operator: ECCC - MSC

43°40'00.000" N
79°24'00.000" W
112.50 m
6158355
71508
XTO

Download Data

Hourly Data (March 2019)
Hourly Data Report for March 11, 2019
TIME
LST
Temp Definition
°C
Dew Point Definition
°C
Rel Hum Definition
%
Precip. Amount Definition
mm

Wind Dir Definition
10's deg

Wind Spd Definition
km/h
Visibility Definition
km
Stn Press Definition
kPa
Hmdx Definition


Wind Chill Definition


Weather Definition


00:00 3.0 -1.3 73 0.0 LegendMM LegendMM   99.96     LegendNANA
01:00 2.9 -1.6 72 0.0 LegendMM LegendMM   99.97     LegendNANA
02:00 3.0 -1.9 70 0.0 LegendMM LegendMM   100.02     LegendNANA
03:00 3.1 -2.8 65 0.0 LegendMM LegendMM   100.01     LegendNANA
04:00 2.7 -4.2 61 0.0 LegendMM LegendMM   100.03     LegendNANA
05:00 2.6 -4.1 61 0.0 LegendMM LegendMM   100.12     LegendNANA
06:00 2.3 -5.0 59 0.0 LegendMM LegendMM   100.18     LegendNANA
07:00 1.9 -5.2 59 0.0 LegendMM LegendMM   100.25     LegendNANA
08:00 2.0 -5.2 59 0.0 LegendMM LegendMM   100.33     LegendNANA
09:00 1.9 -5.5 58 0.0 LegendMM LegendMM   100.41     LegendNANA
10:00 1.9 -5.8 57 0.0 LegendMM LegendMM   100.44     LegendNANA
11:00 2.3 -5.2 58 0.0 LegendMM LegendMM   100.46     LegendNANA
12:00 2.3 -6.3 53 0.0 LegendMM LegendMM   100.48     LegendNANA
13:00 2.1 -5.6 57 0.0 LegendMM LegendMM   100.49     LegendNANA
14:00 1.8 -6.3 55 0.0 LegendMM LegendMM   100.48     LegendNANA
15:00 1.2 -6.0 58 0.0 LegendMM LegendMM   100.53     LegendNANA
16:00 0.8 -5.8 61 0.0 LegendMM LegendMM   100.59     LegendNANA
17:00 0.8 -5.9 61 0.0 LegendMM LegendMM   100.64     LegendNANA
18:00 0.4 -6.9 58 0.0 LegendMM LegendMM   100.69     LegendNANA
19:00 -0.4 -6.7 63 0.0 LegendMM LegendMM   100.75     LegendNANA
20:00 -0.7 -7.2 62 0.0 LegendMM LegendMM   100.81     LegendNANA
21:00 -1.0 -6.5 66 0.0 LegendMM LegendMM   100.83     LegendNANA
22:00 -1.0 -5.9 69 0.0 LegendMM LegendMM   100.85     LegendNANA
23:00 -0.7 -6.0 67 0.0 LegendMM LegendMM   100.88     LegendNANA

Notes on Data Quality.

Legend

  • E = Estimated
  • M = Missing
  • NA = Not Available*
  • [empty] = Indicates an unobserved value
Date modified: